Regional Weather Roundup
Issued by NWS

Home | Current Version | Previous Version | Text Only | Print | Product List | Glossary Off
Versions: 1 2 3 4 5 6 7 8 9 10 11 12 13 14 15 16 17 18 19 20 21 22 23 24 25 26 27 28 29 30 31 32 33 34 35 36 37 38 39 40 41 42 43 44 45 46 47 48 49 50

000
ASUS43 KLOT 241403
RWRIL

ILLINOIS REGIONAL WEATHER ROUNDUP
NATIONAL WEATHER SERVICE CHICAGO/ROMEOVILLE IL
900 AM CDT SUN JUL 24 2016

NOTE: "FAIR" INDICATES FEW OR NO CLOUDS BELOW 12,000 FEET WITH NO
SIGNIFICANT WEATHER AND/OR OBSTRUCTIONS TO VISIBILITY.

* THESE STATIONS ARE NOT UNDER NWS QUALITY CONTROL. THEY ALSO MAY NOT
  REPORT WEATHER SUCH AS PRECIPITATION OR FOG.

ILZ001-002-007-009-015-016-024-241500-
NORTHWEST ILLINOIS

CITY           SKY/WX    TMP DP  RH WIND       PRES   REMARKS
MOLINE         SUNNY     86  77  74 S8        29.85S HX  97
STERLING*      SUNNY     84  79  85 VRB5      29.88S HX  96
SAVANNA*       SUNNY     84  78  83 S10       29.84F HX  95
$$

ILZ003-004-008-010-011-017-018-241500-
NORTH CENTRAL ILLINOIS

CITY           SKY/WX    TMP DP  RH WIND       PRES   REMARKS
ROCKFORD       MOSUNNY   82  76  81 MISG      29.88F HX  90
FREEPORT*      SUNNY     80  76  87 S10       29.87S HX  86
ROCHELLE*      SUNNY     80  77  90 S9G17     29.89F HX  87
$$

ILZ005-006-012>014-019>023-241500-
NORTHEAST ILLINOIS

CITY           SKY/WX    TMP DP  RH WIND       PRES   REMARKS
CHICAGO-OHARE  CLOUDY    78  73  84 S12       29.91F HX  81
CHICAGO-MIDWAY CLOUDY    79  71  76 S13G22    29.92F HX  82
AURORA         SUNNY     80  75  84 S12       29.92S HX  85
LANSING*       CLOUDY    76  70  81 S10       29.95F
WAUKEGAN       CLOUDY    77  73  87 S15       29.89F
DUPAGE AIRPORT MOSUNNY   79  74  84 S13       29.91S HX  82
WHEELING       CLOUDY    78  73  84 S14       29.91F HX  81
MORRIS*        MOSUNNY   79  76  89 S8        29.92R HX  83
NORTHERLY ISL    N/A     77  70  79 S10         N/A
$$

LMZ740>746-241500-
SOUTHERN LAKE MICHIGAN

STATION/POSITION SKY/WX   TEMP    WIND        PRES    VSBY  WAVE
                          AIR SEA DIR/SP/G                  HT/PER
                          (F)     (DEG/KT/KT) (MB)    (MI)  (FT/S)
SOUTHERN BUOY              74 72   90/ 10/ 19 1012.9          3/ 4
WILMETTE HARBOR            69 65  190/ 10/ 12   N/A           1/ 2
HARRISON CRIB              74     180/ 17/ 17   N/A
BURNHAM HARBOR             77     160/  9/ 13   N/A
CALUMET HARBOR             75     170/  8/ 11 1013.4R
BURNS HARBOR               76     180/  8/ 13 1014.6R
MICHIGAN CITY              75     150/ 13/ 15   N/A
MICHIGAN CITY 6N           75 73  180/ 12/ 16   N/A           1/ 2
ST. JOSEPH                 75 74  180/ 12/ 16 1013.1F         1/ 2
$$

ILZ025>027-034>036-040-047-049-050-058-095>099-241500-
WEST-CENTRAL ILLINOIS

CITY           SKY/WX    TMP DP  RH WIND       PRES   REMARKS
QUINCY         SUNNY     85  76  74 SW10      29.92R HX  94
GALESBURG*     SUNNY     83  76  79 S9G16     29.90S HX  92
MACOMB*        SUNNY     83  77  81 SW7       29.93R HX  93
JACKSONVILLE*  MOSUNNY   83  77  80 S9        29.94R HX  92
PITTSFIELD*    SUNNY     84  77  78 SW6       29.94S HX  94
$$

ILZ028>032-037-038-041>044-048-051>054-059>061-241500-
CENTRAL ILLINOIS

CITY           SKY/WX    TMP DP  RH WIND       PRES   REMARKS
PONTIAC        MOSUNNY   82  79  90 S10       29.94S HX  93
BLOOMINGTON    CLOUDY    82  77  84 S12       29.97S HX  90
DECATUR        CLOUDY    85  76  74 S13       29.97R HX  94
PEORIA         MOSUNNY   82  78  88 S10       29.92S HX  91
LACON*         SUNNY     83  76  79 SW8       29.90S HX  92
LINCOLN*       MOSUNNY   83  78  85 S8        29.95R HX  94
SPRINGFIELD    MOSUNNY   84  76  76 S9        29.95R HX  93
TAYLORVILLE    NOT AVBL
$$

ILZ033-039-045-046-055>057-062-063-241500-
EAST-CENTRAL ILLINOIS

CITY           SKY/WX    TMP DP  RH WIND       PRES   REMARKS
CHAMPAIGN      MOSUNNY   82  77  84 S8        29.98S HAZE    HX  90
MATTOON        SUNNY     82  76  81 S7        29.98R HX  89
$$

ILZ079-100>102-241500-
SOUTHWEST ILLINOIS

CITY           SKY/WX    TMP DP  RH WIND       PRES   REMARKS
ALTON          MOSUNNY   82  75  78 S9        29.96S HX  89
BELLEVILLE     SUNNY     83  81  95 S3        29.96R HX  97
CAHOKIA*       SUNNY     85  77  77 S5        29.96R HX  95
SPARTA*        SUNNY     82  76  82 S5        29.99S HX  90
$$

ILZ064>066-069>071-074>076-080>082-084>086-088>090-092>094-241500-
SOUTH-CENTRAL ILLINOIS

CITY           SKY/WX    TMP DP  RH WIND       PRES   REMARKS
CARBONDALE     SUNNY     84  77  79 S8        29.98S HX  94
EFFINGHAM*     SUNNY     83  80  89 SE5       30.00R HX  96
MARION         MOSUNNY   84  79  84 S6        30.00R HX  96
MT. VERNON     SUNNY     82  75  78 SW3       29.99S HX  89
CENTRALIA*     SUNNY     85  80  85 S6        29.97S HX  99
SALEM*         SUNNY     85  78  78 SW5       29.98R HX  96
METROPOLIS*    SUNNY     83  77  81 CALM      30.00R HX  93
$$

ILZ067-068-072-073-078-083-087-091-241500-
SOUTHEAST ILLINOIS

CITY           SKY/WX    TMP DP  RH WIND       PRES   REMARKS
LAWRENCEVILLE  SUNNY     82  78  88 S6        29.99R HX  91
FLORA*         SUNNY     83  79  87 S5        29.98S HX  95
FAIRFIELD*     SUNNY     82  78  88 S3        29.97S HX  91
HARRISBURG*    SUNNY     82  78  90 SW3       29.99S HX  90
ROBINSON*      SUNNY     83  78  82 S6        29.99S HX  93
CARMI*         SUNNY     81  78  91 S5        29.99R HX  88
$$

ABBREVIATIONS USED IN REMARKS
   TC - TEMPERATURE IN CELSIUS
  WCI - WIND CHILL INDEX
   HX - HEAT INDEX
  VSB - VISIBILITY
$$





USA.gov is the U.S. government's official web portal to all federal, state and local government web resources and services.